Location: Bratislava
(0.0000°N, 17.1167°E)
Time: 18:35:38
(UTC+02:00)

Daily predictions for brighter satellites

Satellite Brightness Start Highest point End
(mag) Time Altitude Azimuth Time Altitude Azimuth Time Altitude Azimuth
Centaur D-1AR AC-48 4.2 17:48:21 10° SW 17:54:01 67° SSE 18:38:55 10° ENE
Centaur D-1AR AC-48 4.2 17:48:20 10° SW 17:54:02 67° SSE 18:38:55 10° ENE
Centaur D-1AR AC-48 4.2 17:48:21 10° SW 17:54:02 67° SSE 18:38:55 10° ENE
FENGYUN 3A 3.9 19:07:27 10° S 19:12:49 79° WSW 19:18:09 10° NNW
Cosmos 1544 Rocket 3.5 19:08:51 10° S 19:13:11 88° E 19:17:30 10° N
Tsikada Rocket 4.4 19:09:11 10° SSE 19:14:52 39° E 19:20:30 10° NNE
Ariane Rocket 3.1 19:12:38 10° SSE 19:17:33 53° ENE 19:22:26 10° N
BREEZE-M (TANK) 2.0 19:14:53 10° SSW 19:17:58 44° SE 19:20:04 10° NE
Cosmos 1850 Rocket 4.0 19:13:02 10° N 19:18:06 58° ENE 19:23:11 10° SSE
USA 229 DEB 3.9 19:12:00 10° S 19:18:18 46° ESE 19:24:34 10° NE
USA 229 3.9 19:12:06 10° S 19:18:25 45° ESE 19:24:40 10° NE
Cosmos 1741 Rocket 4.1 19:14:22 10° N 19:19:34 58° ENE 19:24:46 10° SSE
Cosmos 1025 Rocket 4.0 19:15:59 10° NNW 19:20:11 53° W 19:24:23 10° S
Shenzhou-11 Module 3.3 19:21:22 10° WNW 19:24:07 38° SW 19:26:53 10° SSE
Centaur Rocket 3.2 19:21:47 10° W 19:26:00 40° NNW 19:27:59 12° NE
Cosmos 1842 3.5 19:23:59 10° NNE 19:27:42 44° E 19:31:26 10° SSE
DELTA 2 R/B (1) 3.7 19:23:01 10° SW 19:28:28 57° SE 19:33:30 12° ENE
GPS 2-14 Rocket1 2.8 19:27:10 10° WSW 19:31:15 72° NNW 19:34:27 15° ENE
Yuri Rocket 3.5 19:26:37 10° SW 19:32:57 71° SSE 19:36:42 17° ENE
Cosmos 1697 Rocket 4.5 19:30:52 10° NE 19:32:00 12° ENE 19:32:00 12° ENE
YAOGAN 1 2.5 19:29:30 10° SSE 19:33:49 89° E 19:38:09 10° NNW
Fermi 4.0 19:32:07 10° NW 19:36:04 50° NNE 19:38:25 22° E
NOSS 3-1 (C) 3.6 19:37:07 10° S 19:42:05 36° ESE 19:45:49 16° NE
FUSE 4.4 19:42:14 10° WNW 19:47:27 58° SSW 19:51:15 18° SE
MONITOR-E 3.9 19:44:43 10° SSE 19:47:40 72° E 19:50:36 10° N
BLOCK DM-SL R/B 0.8 19:46:34 10° W 19:48:06 63° SW 19:48:06 63° SW
COSMOS 2487 4.2 19:50:24 10° SW 19:53:36 34° WNW 19:56:47 10° NNW
Cosmos 1544 3.1 19:50:20 10° S 19:54:01 80° W 19:57:42 10° N
Cosmos 1513 Rocket 4.5 19:48:50 10° N 19:55:08 65° E 20:01:29 10° SSE
IRS-1A Rocket 4.2 19:50:33 10° SSE 19:56:11 88° ENE 20:01:41 10° NNW
Cosmos 1464 Rocket 3.9 19:50:10 10° N 19:56:24 74° E 20:02:34 10° S
Milstar 3 4.4 19:54:23 10° W 20:02:01 47° NNW 20:15:25 10° NE
SL-8 R/B 4.2 19:57:51 10° NNW 20:02:18 38° NE 20:02:35 37° ENE
Cosmos 1378 2.9 20:03:38 10° N 20:07:08 69° ENE 20:07:08 69° ENE
CZ-4 R/B 4.5 20:05:01 10° SW 20:07:46 17° WSW 20:10:30 10° WNW
Cosmos 1892 Rocket 4.2 20:03:24 10° NNW 20:07:47 57° W 20:12:11 10° S
Cosmos 1315 Rocket 2.8 20:07:46 10° N 20:11:54 87° W 20:16:02 10° S
Meteor 2-20 4.4 20:08:53 10° S 20:14:59 85° W 20:21:02 10° N
Ariane H10+ 2.4 20:14:43 10° W 20:18:16 57° WNW 20:18:16 57° WNW
BLOCK DM-SL R/B 3.6 20:14:58 10° W 20:19:42 80° S 20:22:01 43° E
Envisat 2.8 20:16:35 11° SSE 20:21:27 79° E 20:26:31 10° N
CZ-4C R/B 3.4 20:16:41 10° NNW 20:24:49 68° WSW 20:32:52 10° SSE
COSMOS 2455 4.3 20:25:06 10° SW 20:30:30 35° WNW 20:35:53 10° N
Gbstr 26 Del rocket 4.4 20:30:02 10° SSW 20:32:27 32° SSW 20:32:27 32° SSW
SPOT 3 Rocket 3.7 20:35:36 36° S 20:37:42 70° WSW 20:42:47 10° NNW
Cosmos 2278 3.7 20:37:13 10° NNW 20:42:28 76° NW 20:42:28 76° NW
Palapa 6 Rocket 4.3 20:37:31 10° SW 20:43:09 55° S 20:43:09 55° S
ARIANE 5 R/B 3.5 20:40:20 10° W 20:48:55 39° NW 20:48:55 39° NW
Cosmos 2369 4.5 20:48:12 10° NNW 20:53:38 49° WSW 20:54:50 42° SW
ARIANE 5 R/B 3.5 20:59:49 10° WNW 21:01:23 30° NW 21:01:23 30° NW
Cosmos 1697 Rocket 4.5 21:11:22 10° NW 21:13:51 25° NW 21:13:51 25° NW
ARIANE 5 DEB (SYLDA) 4.4 21:28:13 10° W 21:38:52 49° W 21:38:52 49° W
